Decorah, IA

8:35 AM CST on November 21, 2017 (GMT -0600)
Decorah Municipal

Weather History for KDEH - October, 2012

Change the Weather History Date:

Saturday, October 6, 2012

  Actual Average Record
Temperature  
Mean Temperature 36 °F -  
Max Temperature 41 °F 62 °F 94 °F (1963)
Min Temperature 32 °F 42 °F 21 °F (1952)
Degree Days  
Heating Degree Days 28    
Moisture  
Dew Point 24 °F    
Average Humidity 57    
Maximum Humidity 80    
Minimum Humidity 49    
Precipitation  
Precipitation 0.00 in - - ()
Sea Level Pressure  
Sea Level Pressure 30.18 in    
Wind  
Wind Speed 10 mph (NW)    
Max Wind Speed 18 mph    
Max Gust Speed 26 mph    
Visibility 10 miles    
Events Rain    
Averages and records for this station are not official NWS values.
T = Trace of Precipitation, MM = Missing Value Source: NWS Daily Summary

Daily Weather History Graph

Daily Weather History Graph

Search for Another Location

Airport or City:

Trip Planner

Search our weather history database for the weather conditions in past years. The results will help you decide how hot, cold, wet, or windy it might be!

Date:

Astronomy

Oct. 06, 2012 Rise Set
Actual Time 7:10 AM CDT 6:38 PM CDT
Civil Twilight 6:42 AM CDT 7:06 PM CDT
Nautical Twilight 6:09 AM CDT 7:39 PM CDT
Astronomical Twilight 5:35 AM CDT 8:12 PM CDT
Moon 10:46 PM CDT (10/6) 1:13 PM CDT (10/6)
Length of Visible Light 12h 24m
Length of Day
11h 27m
Waning Gibbous, 65% of the Moon is Illuminated
Oct 6
Waning Gibbous
Oct 8
Last Quarter
Oct 15
New
Oct 21
First Quarter
Oct 29
Full

Hourly Weather History & Observations

Time (CDT) Temp. Windchill Dew Point Humidity Pressure Visibility Wind Dir Wind Speed Gust Speed Precip Events Conditions
12:15 AM 39.2 °F 32.5 °F 23.0 °F 52% 30.11 in 10.0 mi NW 10.4 mph 19.6 mph N/A Rain Light Rain
12:35 AM 39.2 °F 32.5 °F 23.0 °F 52% 30.11 in 10.0 mi NW 10.4 mph 17.3 mph N/A   Overcast
12:55 AM 39.2 °F 33.0 °F 23.0 °F 52% 30.11 in 10.0 mi NW 9.2 mph 17.3 mph N/A Rain Light Rain
1:15 AM 39.2 °F 32.5 °F 23.0 °F 52% 30.11 in 10.0 mi NW 10.4 mph - N/A   Overcast
1:55 AM 39.2 °F 29.8 °F 24.8 °F 56% 30.11 in 10.0 mi NW 18.4 mph 24.2 mph N/A Rain Light Rain
2:15 AM 39.2 °F 33.0 °F 24.8 °F 56% 30.11 in 10.0 mi NW 9.2 mph 26.5 mph N/A Rain Light Rain
2:35 AM 39.2 °F 31.6 °F 23.0 °F 52% 30.11 in 10.0 mi NW 12.7 mph 20.7 mph N/A Rain Light Rain
2:55 AM 39.2 °F 31.6 °F 24.8 °F 56% 30.11 in 10.0 mi NW 12.7 mph - N/A   Overcast
3:15 AM 39.2 °F 30.8 °F 24.8 °F 56% 30.11 in 10.0 mi NW 15.0 mph - N/A   Overcast
3:35 AM 37.4 °F 28.9 °F 23.0 °F 56% 30.11 in 10.0 mi NNW 13.8 mph 21.9 mph N/A   Overcast
3:55 AM 35.6 °F 26.6 °F 23.0 °F 60% 30.12 in 10.0 mi NW 13.8 mph 20.7 mph N/A   Scattered Clouds
4:35 AM 35.6 °F 29.9 °F 24.8 °F 65% 30.12 in 10.0 mi Variable 6.9 mph 13.8 mph N/A   Clear
4:55 AM 33.8 °F 27.7 °F 24.8 °F 70% 30.13 in 10.0 mi NW 6.9 mph 13.8 mph N/A   Partly Cloudy
5:15 AM 33.8 °F 28.6 °F 24.8 °F 70% 30.13 in 10.0 mi Variable 5.8 mph 11.5 mph N/A   Mostly Cloudy
5:35 AM 33.8 °F 27.0 °F 24.8 °F 70% 30.13 in 10.0 mi WNW 8.1 mph 13.8 mph N/A   Scattered Clouds
5:55 AM 32.0 °F 26.4 °F 24.8 °F 75% 30.14 in 10.0 mi WNW 5.8 mph 11.5 mph N/A   Clear
6:15 AM 32.0 °F 24.2 °F 26.6 °F 80% 30.14 in 10.0 mi NW 9.2 mph - N/A   Mostly Cloudy
6:35 AM 33.8 °F 27.0 °F 26.6 °F 75% 30.15 in 10.0 mi NW 8.1 mph 13.8 mph N/A   Overcast
6:55 AM 33.8 °F 27.0 °F 26.6 °F 75% 30.15 in 10.0 mi NW 8.1 mph - N/A   Overcast
7:15 AM 33.8 °F 27.0 °F 26.6 °F 75% 30.15 in 10.0 mi NW 8.1 mph - N/A   Overcast
7:35 AM 33.8 °F 27.7 °F 26.6 °F 75% 30.15 in 10.0 mi WNW 6.9 mph - N/A   Overcast
7:55 AM - - - N/A% 30.16 in 10.0 mi Variable 6.9 mph - N/A   Overcast
8:15 AM 35.6 °F 28.6 °F 28.4 °F 75% 30.16 in 10.0 mi NW 9.2 mph - N/A   Unknown
8:35 AM 35.6 °F 27.5 °F 28.4 °F 75% 30.17 in 10.0 mi NW 11.5 mph - N/A   Overcast
8:55 AM 37.4 °F 29.8 °F 28.4 °F 70% 30.17 in 10.0 mi NW 11.5 mph - N/A   Overcast
9:15 AM 37.4 °F 30.8 °F 28.4 °F 70% 30.18 in 10.0 mi NW 9.2 mph - N/A   Overcast
9:35 AM 39.2 °F 31.6 °F 26.6 °F 61% 30.19 in 10.0 mi NNW 12.7 mph 20.7 mph N/A   Overcast
9:55 AM 39.2 °F 31.6 °F 26.6 °F 61% 30.20 in 10.0 mi NNW 12.7 mph 26.5 mph N/A   Overcast
10:15 AM 39.2 °F 31.6 °F 24.8 °F 56% 30.20 in 10.0 mi NNW 12.7 mph 20.7 mph N/A   Overcast
10:35 AM 39.2 °F 30.5 °F 24.8 °F 56% 30.21 in 10.0 mi NNW 16.1 mph 21.9 mph N/A   Overcast
10:55 AM 39.2 °F 33.0 °F 24.8 °F 56% 30.22 in 10.0 mi NNW 9.2 mph 20.7 mph N/A   Overcast
11:15 AM 39.2 °F 31.2 °F 26.6 °F 61% 30.22 in 10.0 mi NNW 13.8 mph 19.6 mph N/A   Overcast
11:35 AM 39.2 °F 31.6 °F 24.8 °F 56% 30.21 in 10.0 mi NNW 12.7 mph 20.7 mph N/A   Overcast
11:55 AM 39.2 °F 30.8 °F 24.8 °F 56% 30.22 in 10.0 mi NNW 15.0 mph - N/A   Overcast
12:15 PM 41.0 °F 32.2 °F 24.8 °F 53% 30.21 in 10.0 mi NW 18.4 mph - N/A   Overcast
12:35 PM 41.0 °F 33.5 °F 24.8 °F 53% 30.21 in 10.0 mi NNW 13.8 mph 23.0 mph N/A   Overcast
12:55 PM 41.0 °F 33.5 °F 24.8 °F 53% 30.21 in 10.0 mi NNW 13.8 mph 19.6 mph N/A   Overcast
1:15 PM 41.0 °F 34.3 °F 24.8 °F 53% 30.21 in 10.0 mi NNW 11.5 mph 18.4 mph N/A   Overcast
1:35 PM 41.0 °F 33.9 °F 24.8 °F 53% 30.21 in 10.0 mi NNW 12.7 mph 19.6 mph N/A   Overcast
1:55 PM 41.0 °F 33.9 °F 24.8 °F 53% 30.20 in 10.0 mi NW 12.7 mph - N/A   Overcast
2:15 PM 41.0 °F 33.9 °F 24.8 °F 53% 30.20 in 10.0 mi NNW 12.7 mph 20.7 mph N/A   Overcast
2:35 PM 41.0 °F 33.9 °F 24.8 °F 53% 30.19 in 10.0 mi North 12.7 mph 21.9 mph N/A   Overcast
2:55 PM 41.0 °F 33.1 °F 23.0 °F 49% 30.19 in 10.0 mi NNW 15.0 mph - N/A   Overcast
3:15 PM 41.0 °F 34.3 °F 24.8 °F 53% 30.19 in 10.0 mi NW 11.5 mph 17.3 mph N/A   Overcast
3:35 PM 41.0 °F 34.3 °F 23.0 °F 49% 30.19 in 10.0 mi NNW 11.5 mph 20.7 mph N/A   Overcast
3:55 PM 41.0 °F 33.1 °F 23.0 °F 49% 30.19 in 10.0 mi NNW 15.0 mph - N/A   Overcast
4:15 PM 41.0 °F 35.2 °F 23.0 °F 49% 30.19 in 10.0 mi North 9.2 mph 16.1 mph N/A   Overcast
4:35 PM 41.0 °F 34.3 °F 23.0 °F 49% 30.19 in 10.0 mi North 11.5 mph - N/A   Overcast
4:55 PM 41.0 °F 34.7 °F 23.0 °F 49% 30.19 in 10.0 mi NW 10.4 mph 17.3 mph N/A   Overcast
5:15 PM 41.0 °F 35.2 °F 23.0 °F 49% 30.20 in 10.0 mi NNW 9.2 mph - N/A   Overcast
5:35 PM 41.0 °F 37.1 °F 23.0 °F 49% 30.20 in 10.0 mi NW 5.8 mph - N/A   Overcast
6:15 PM 41.0 °F 35.2 °F 23.0 °F 49% 30.21 in 10.0 mi NW 9.2 mph - N/A   Overcast
6:35 PM 41.0 °F 37.1 °F 23.0 °F 49% 30.21 in 10.0 mi NW 5.8 mph - N/A   Overcast
6:55 PM 39.2 °F 34.2 °F 23.0 °F 52% 30.21 in 10.0 mi NW 6.9 mph - N/A   Overcast
7:15 PM 39.2 °F 33.6 °F 23.0 °F 52% 30.21 in 10.0 mi NW 8.1 mph - N/A   Overcast
7:35 PM 39.2 °F 35.0 °F 23.0 °F 52% 30.21 in 10.0 mi NW 5.8 mph - N/A   Overcast
7:55 PM 39.2 °F - 23.0 °F 52% 30.22 in 10.0 mi Calm Calm - N/A   Overcast
8:15 PM 39.2 °F 37.0 °F 23.0 °F 52% 30.22 in 10.0 mi Variable 3.5 mph - N/A   Overcast
8:35 PM 39.2 °F 37.0 °F 23.0 °F 52% 30.22 in 10.0 mi WNW 3.5 mph - N/A   Overcast
8:55 PM 39.2 °F 37.0 °F 23.0 °F 52% 30.22 in 10.0 mi Variable 3.5 mph - N/A   Overcast
9:15 PM 39.2 °F - 23.0 °F 52% 30.22 in 10.0 mi Calm Calm - N/A   Overcast
9:35 PM 37.4 °F - 23.0 °F 56% 30.22 in 10.0 mi Calm Calm - N/A   Overcast
9:55 PM 37.4 °F 34.9 °F 23.0 °F 56% 30.22 in 10.0 mi Variable 3.5 mph - N/A   Overcast
10:15 PM 37.4 °F 33.8 °F 23.0 °F 56% 30.22 in 10.0 mi Variable 4.6 mph - N/A   Overcast
10:35 PM 37.4 °F 33.8 °F 21.2 °F 52% 30.22 in 10.0 mi WNW 4.6 mph - N/A   Overcast
10:55 PM 37.4 °F - 23.0 °F 56% 30.22 in 10.0 mi Calm Calm - N/A   Overcast
11:15 PM 37.4 °F - 23.0 °F 56% 30.22 in 10.0 mi Calm Calm - N/A   Overcast
11:35 PM 37.4 °F 33.8 °F 21.2 °F 52% 30.22 in 10.0 mi WNW 4.6 mph - N/A   Overcast
11:55 PM 37.4 °F 34.9 °F 23.0 °F 56% 30.22 in 10.0 mi Variable 3.5 mph - N/A   Overcast